Torna al catalogo

FENGYUN 1C DEB

AttivoSSO
NORAD 32155·DEBRIS·🇨🇳 China

Lanciato May 10, 1999 da Taiyuan Satellite Launch Center

Loading…

Prossimi Passaggi (prossime 24 ore)

TLE

AggiornatoSource: Space-Track

Epoca: Sep 12, 2026, 13:42 UTC

1 32155U 99025CSZ 26255.57151978  .00000601  00000-0  22762-3 0  9993
2 32155  98.9713 199.7791 0069431 158.9216 201.4854 14.33598511741458

Traccia FENGYUN 1C DEB in tempo reale con AllMySat

Download on the App Store